Location: Unspecified
(0.0000°N, 0.0000°E)
Time: 17:39:35
(UTC+00:00)

Vanguard 1 Rocket - Pass Details

Date: 10 December 2017
Orbit: 652 x 4225 km, 34.3° (Epoch: 18 July)

Event Time Altitude Azimuth Distance (km) Brightness Sun altitude
Rises 18:55:14 0° 309° (NW) 5,350 11.7 -14.3°
Reaches altitude 10° 19:00:57 10° 331° (NNW) 5,049 11.2 -15.6°
Maximum altitude 19:09:08 16° 3° (N) 5,448 11.1 -17.5°
Enters shadow 19:19:13 11° 33° (NNE) 6,692 11.3 -19.8°
